Hourly Data Report for January 12, 2020

TORONTO CITY
ONTARIO
Current Station Operator: ECCC - MSC

43°40'00.000" N
79°24'00.000" W
112.50 m
6158355
71508
XTO

Download Data

Hourly Data (January 2020)
Hourly Data Report for January 12, 2020
TIME
LST
Temp Definition
°C
Dew Point Definition
°C
Rel Hum Definition
%
Precip. Amount Definition
mm

Wind Dir Definition
10's deg

Wind Spd Definition
km/h
Visibility Definition
km
Stn Press Definition
kPa
Hmdx Definition


Wind Chill Definition


Weather Definition


00:00 2.5 1.2 91 1.3       99.25     LegendNANA
01:00 2.2 0.9 91 1.2       99.05     LegendNANA
02:00 1.8 0.4 91 4.3       98.97     LegendNANA
03:00 1.6 0.3 91 3.5       99.01     LegendNANA
04:00 1.3 -0.1 91 2.1       98.81     LegendNANA
05:00 1.4 0.1 91 0.7       99.08     LegendNANA
06:00 -0.4 -2.1 89 1.7       99.47     LegendNANA
07:00 -4.0 -6.3 84 0.3       99.85     LegendNANA
08:00 -4.5 -7.6 79 0.0       100.15     LegendNANA
09:00 -5.0 -8.7 75 0.0       100.51     LegendNANA
10:00 -4.1 -9.0 69 0.3       100.81     LegendNANA
11:00 -4.7 -10.1 66 0.0       101.07     LegendNANA
12:00 -3.8 -8.9 67 0.0       101.17     LegendNANA
13:00 -4.1 -9.4 67 0.0       101.20     LegendNANA
14:00 -3.5 -8.4 69 0.0       101.34     LegendNANA
15:00 -3.3 -8.0 70 0.0       101.42     LegendNANA
16:00 -3.2 -7.9 70 0.0       101.56     LegendNANA
17:00 -3.3 -7.8 71 0.0       101.63     LegendNANA
18:00 -3.4 -7.8 72 0.0       101.70     LegendNANA
19:00 -3.8 -8.1 72 0.0       101.67     LegendNANA
20:00 -3.6 -7.6 74 0.0       101.66     LegendNANA
21:00 -3.9 -7.8 74 0.0       101.64     LegendNANA
22:00 -4.0 -7.7 75 0.0       101.65     LegendNANA
23:00 -4.2 -7.8 76 0.0       101.60     LegendNANA

Notes on Data Quality.

Legend

  • E = Estimated
  • M = Missing
  • NA = Not Available*
  • [empty] = Indicates an unobserved value
Date modified: